Home   Weather   Nowra   Past weeks
Flag for Australia

Past Weather in Nowra, New South Wales, Australia — Yesterday and Last 2 Weeks

Now
61 °F

Sunny.


Feels Like: 61 °F
Forecast: 62 / 48 °F
Wind: 22 mph from West

Location: Nowra Ran Air Station

Current Time: Jul 16, 2019 at 4:48:12 pm

Latest Report: Jul 16, 2019 at 4:00 pm


Visibility: 10 mi

Pressure: 30.01 "Hg

Humidity: 42%

Dew Point: 37 °F

Location of NowraLocation

Past Weather in Nowra — Graph

°F

Nowra Temperature Yesterday

Maximum temperature yesterday: 63 °F (at 2:00 pm)
Minimum temperature yesterday: 50 °F (at 7:00 am)
Average temperature yesterday: 55 °F

High & Low Weather Summary for the Past Weeks

 TemperatureHumidityPressure
High70 °F (Jul 2, 1:00 pm)100% (Jul 4, 12:00 am)30.63 "Hg (Jul 4, 12:00 am)
Low45 °F (Jul 14, 4:00 am)12% (Jul 2, 3:00 pm)29.59 "Hg (Jul 11, 5:00 am)
Average55 °F63%30.13 "Hg
* Reported Jul 1 3:00 pm — Jul 16 3:00 pm, Nowra. Weather by CustomWeather, © 2019

Note: Actual official high and low records may vary slightly from our data, if they occured in-between our weather recording intervals... More about our weather records

Advertising

Nowra Weather History for the Previous 24 Hours

Scroll right to see more
 ConditionsComfort  
Time TempWeatherWind HumidityBarometerVisibility
3:00 pm
Tue, Jul 16
63 °FSunny.18 mph39%29.98 "Hg10 mi
2:29 pm63 °FSunny.20 mph39%29.98 "Hg10 mi
2:00 pm64 °FSunny.22 mph37%29.98 "Hg10 mi
1:00 pm64 °FSunny.17 mph40%29.98 "Hg10 mi
12:00 pm63 °FSunny.20 mph42%30.01 "Hg10 mi
11:16 am61 °FSunny.17 mph45%30.04 "Hg10 mi
11:00 am61 °FSunny.18 mph45%30.04 "Hg10 mi
10:00 am59 °FSunny.22 mph48%30.04 "Hg10 mi
9:00 am55 °FSunny.18 mph55%30.04 "Hg10 mi
8:00 am54 °FSunny.16 mph58%30.04 "Hg10 mi
7:00 am52 °FClear.17 mph62%30.04 "Hg10 mi
6:00 am52 °FClear.18 mph62%30.01 "HgN/A
5:00 am50 °FClear.20 mph67%29.98 "HgN/A
4:00 am50 °FClear.16 mph67%29.98 "HgN/A
3:00 am50 °FClear.16 mph67%29.98 "HgN/A
2:00 am52 °FClear.20 mph62%29.98 "HgN/A
1:00 am52 °FClear.17 mph58%30.01 "HgN/A
12:00 am52 °FClear.21 mph62%30.01 "HgN/A
11:00 pm
Mon, Jul 15
52 °FClear.20 mph58%30.01 "HgN/A
10:00 pm52 °FClear.18 mph58%30.04 "HgN/A
9:00 pm52 °FClear.17 mph58%30.04 "Hg10 mi
8:00 pm54 °FClear.20 mph54%30.04 "Hg10 mi
7:00 pm54 °FClear.16 mph54%30.04 "Hg10 mi
6:00 pm55 °FClear.17 mph51%30.04 "Hg10 mi
5:00 pm55 °FSunny.16 mph51%30.01 "Hg10 mi
4:00 pm59 °FSunny.15 mph42%29.98 "Hg10 mi
Weather by CustomWeather, © 2019

See weather overview

LIVE PARTIAL LUNAR ECLIPSE – Watch the eclipse as it happens